Location: May
(33.8950°N, 117.4909°W)
Time: 01:42:39
(UTC+00:00)

Daily predictions for brighter satellites

Satellite Brightness Start Highest point End
(mag) Time Altitude Azimuth Time Altitude Azimuth Time Altitude Azimuth
Okean-O 3.6 03:21:12 10° S 03:25:30 51° W 03:29:49 10° NNW
Cosmos 1869 4.1 03:24:56 10° NNE 03:28:23 31° E 03:31:48 10° SE
Cosmos 1825 3.2 03:26:00 10° SSE 03:29:10 27° E 03:32:22 10° NNE
Cosmos 2058 4.3 03:26:19 10° SE 03:29:20 20° E 03:32:21 10° NE
NOSS 3-2 (A) 4.2 03:23:44 10° NNW 03:31:41 80° ENE 03:40:28 10° SSE
OBJECT-B 0.8 03:29:13 10° SSE 03:32:21 60° ENE 03:35:31 10° N
USA 306 4.1 03:29:11 10° NNW 03:33:01 31° NE 03:36:49 10° ESE
SAR-Lupe-1 4.0 03:29:52 10° NNE 03:33:25 65° ESE 03:36:57 10° S
SAR-Lupe-4 3.6 03:30:20 10° NNE 03:33:51 55° E 03:37:21 10° S
COSMOS 2406 3.5 03:29:03 10° S 03:34:21 43° ESE 03:39:41 10° NE
Cosmos 405 Rocket 2.7 03:32:18 10° S 03:36:07 90° WSW 03:40:04 10° N
Cosmos 2034 Rocket 4.3 03:30:30 10° N 03:36:43 75° W 03:42:59 10° S
SL-19 R/B 4.0 03:34:01 10° SSE 03:37:03 54° ENE 03:40:31 10° N
SJ-6B 2.7 03:33:57 10° SSE 03:37:39 60° ENE 03:41:19 10° N
Meteor 1-27 4.3 03:33:56 10° N 03:39:42 72° E 03:45:30 10° SSE
NOSS 3-4 (A) 3.6 03:37:04 10° SW 03:42:49 74° WNW 03:48:51 10° NNE
NOSS 3-4 (C) 3.6 03:37:11 10° SW 03:42:55 75° WNW 03:48:57 10° NNE
OAO 1 Rocket 4.4 03:38:17 10° WSW 03:43:38 73° SSE 03:48:57 10° E
Atlas Centaur 2 2.6 03:42:21 10° SSW 03:45:23 20° SSE 03:47:12 15° SE
Cosmos 1437 Rocket 3.4 03:42:54 10° N 03:46:29 37° ENE 03:49:36 13° SE
USA 32 4.3 03:41:32 10° N 03:46:36 50° E 03:51:40 10° SSE
BREEZE M DEB (TANK) 3.2 03:46:19 10° S 03:48:03 20° ESE 03:51:42 10° ENE
Cosmos 1656 4.2 03:43:16 10° N 03:48:37 43° ENE 03:53:01 14° SE
Resurs 01 Rocket 2.9 03:46:24 13° ESE 03:49:19 25° ENE 03:52:56 10° NNE
Cosmos 1408 2.8 03:45:43 10° S 03:49:22 73° W 03:52:59 10° N
Cosmos 1437 4.4 03:48:40 10° NE 03:50:07 13° ENE 03:50:30 13° E
Cosmos 1980 Rocket 4.3 03:49:03 10° NE 03:50:38 11° NE 03:52:13 10° ENE
ATLAS 2AS CENTAUR R/B 3.0 03:43:36 10° SSW 03:51:22 66° ESE 03:59:07 10° NE
RESURS DK-1 3.5 03:53:35 13° SSE 03:56:14 23° ESE 03:59:30 10° NE
Cosmos 1825 Rocket 4.2 03:52:16 10° SSW 03:56:32 58° W 04:00:48 10° N
NOSS 3-2 (C) 4.2 03:50:52 10° NNW 03:58:48 73° ENE 04:06:18 15° SE
Cosmos-2242 3.3 03:55:33 10° NNW 03:59:48 67° W 04:04:00 10° S
OAO 3 Copernicus 4.2 03:55:19 10° WSW 04:00:21 80° SSE 04:05:23 10° E
H-2A R/B 2.4 03:49:47 10° WSW 04:00:23 40° S 04:02:15 21° SE
Cosmos 2098 Rocket 4.5 04:03:00 11° ENE 04:03:00 11° ENE 04:03:18 10° ENE
Cosmos 1633 4.1 04:03:09 18° E 04:03:25 18° E 04:05:58 10° NE
Cosmos 44 Rocket 3.3 04:06:48 10° SSW 04:11:55 80° ESE 04:17:09 10° NNE
ERS-2 2.5 04:12:53 10° N 04:16:30 64° WNW 04:20:05 10° SSW
USA 267 3.5 04:11:02 10° ENE 04:17:11 42° SE 04:23:17 10° SSW
CENTAUR R/B 3.4 04:08:55 10° NW 04:17:26 76° WSW 04:25:03 15° SSE
Helios 1A Rocket 4.2 04:14:21 10° S 04:18:06 39° W 04:21:55 10° NNW
Sakura Rocket 4.5 04:10:28 10° W 04:19:02 58° S 04:23:06 24° ESE
Meteor 2-2 Rocket 4.4 04:13:42 10° N 04:19:25 58° E 04:23:03 22° SSE
Cosmos 1634 Rocket 4.2 04:15:29 10° N 04:21:44 72° W 04:27:55 10° S
Ariane Rocket 3.0 04:17:44 15° SSE 04:21:58 85° WSW 04:27:04 10° NNW
IRS-1A Rocket 4.4 04:21:09 13° S 04:26:10 75° WSW 04:31:41 10° NNW
Cosmos 1242 Rocket 2.4 04:22:51 10° N 04:26:28 80° E 04:27:49 36° SSE
SEDSat Delta rocket 2.9 04:24:49 10° WSW 04:28:44 52° S 04:29:54 38° ESE
OAO 2 Rocket 3.2 04:24:38 10° W 04:29:41 83° N 04:32:23 27° E
CZ-2C R/B 3.8 04:25:35 10° NNE 04:30:00 51° E 04:31:53 30° SSE
Cosmos 2221 2.7 04:27:32 10° N 04:31:45 53° E 04:33:02 38° SE
USA 307 2.8 04:28:00 10° NW 04:32:16 84° SW 04:33:45 40° SE
USA 238 DEB 4.3 04:25:08 10° NW 04:32:23 59° WSW 04:38:15 18° S
USA 238 4.3 04:25:13 10° NW 04:32:30 60° WSW 04:38:20 18° S
Cosmos 2180 Rocket 4.5 04:26:24 10° N 04:32:30 63° E 04:35:58 26° SSE
IGS 5A 3.5 04:40:41 32° S 04:42:30 74° WSW 04:46:39 10° NNW
Hubble Space Telescope 1.4 04:39:06 10° WSW 04:42:35 36° S 04:42:35 36° S
Terra 3.7 04:43:36 16° ENE 04:43:48 16° ENE 04:46:34 10° NNE
Cosmos 1606 2.8 04:42:32 10° N 04:46:13 52° E 04:46:13 52° E
USA 305 3.4 04:44:50 10° NW 04:48:53 49° SW 04:49:46 41° SSW
USA 308 3.2 04:44:56 10° NW 04:49:05 56° SW 04:49:57 46° S
Cosmos 1697 Rocket 2.7 04:43:33 10° NNW 04:49:13 72° ENE 04:51:14 41° SE
Cosmos 2082 Rocket 2.3 04:45:21 10° SSW 04:50:57 76° WNW 04:56:37 10° NNE
SPOT 3 Rocket 3.5 04:50:07 34° S 04:52:28 84° WSW 04:57:42 10° NNW
Cosmos 1833 Rocket 4.5 04:49:40 10° SW 04:54:40 32° WNW 04:59:42 10° N
Cosmos 2151 3.1 05:00:21 54° ENE 05:00:21 54° ENE 05:04:09 10° NNE
Cosmos 1842 Rocket 4.3 05:08:12 10° NNW 05:12:33 50° W 05:13:42 39° SW
USA 306 4.2 05:09:10 10° WNW 05:12:51 29° SW 05:12:59 29° SW
GP-B 3.7 05:08:50 10° NNE 05:12:19 43° NE 05:12:19 43° NE
Cosmos 1092 Rocket 3.9 05:13:57 50° SSE 05:15:35 72° E 05:21:50 10° N
Cosmos 1076 Rocket 4.5 05:16:19 31° SW 05:17:52 44° W 05:22:02 10° N
Meteor 2-3 Rocket 3.6 05:18:41 63° SE 05:19:26 72° E 05:25:05 10° NNE
ERS-1 Rocket 3.1 05:20:52 56° ENE 05:20:52 56° ENE 05:25:46 10° N
Spot 2 Rocket 3.3 05:21:57 74° SSE 05:22:26 89° E 05:27:35 10° NNW
Cosmos 2369 3.6 05:18:46 10° NNW 05:24:25 81° WSW 05:25:15 65° S
Resurs 01 Rocket 3.5 05:23:58 19° SW 05:25:41 24° W 05:29:16 10° NW
OAO 1 Rocket 4.4 05:24:02 10° W 05:29:22 78° N 05:29:57 69° NE
Cosmos 2026 Rocket 3.9 05:33:39 64° SSE 05:34:44 82° E 05:41:04 10° N
Cosmos 1980 Rocket 2.0 05:29:44 10° NNW 05:35:23 89° ENE 05:35:38 82° SSE
Cosmos 158 Rocket 4.2 05:37:57 58° WSW 05:38:37 65° WNW 05:43:47 10° N
Cosmos 1271 Rocket 4.5 05:36:12 10° N 05:38:17 28° NNE 05:38:17 28° NNE
Cosmos 1627 Rocket 4.4 05:39:18 61° SSW 05:40:32 86° W 05:46:55 10° N
Cosmos 2322 Rocket 3.9 05:38:47 10° NNE 05:42:47 20° ENE 05:42:47 20° ENE
ARIANE 5 R/B 3.6 05:53:39 43° WNW 05:53:39 43° WNW 05:57:17 10° NNW
Cosmos 2292 Rocket 4.3 05:59:37 70° NNE 05:59:37 70° NNE 06:05:33 10° N
USA 267 4.1 05:53:56 10° NNE 06:00:08 47° NW 06:06:20 10° WSW
SPOT 5 3.9 06:02:35 37° NW 06:02:35 37° NW 06:05:35 10° NNW
ATLAS 3B R/B 2.7 05:59:31 10° NNW 06:06:46 83° ENE 06:07:14 78° ESE
SL-16 R/B 3.1 06:02:52 10° N 06:07:23 40° NE 06:07:23 40° NE
Cosmos 1553 Rocket 4.1 06:12:53 10° N 06:18:05 65° NNE 06:18:05 65° NNE
Terra 3.2 06:22:29 36° NW 06:22:29 36° NW 06:25:41 10° NNW
USA 234 4.3 06:28:21 32° ENE 06:29:55 36° NE 06:35:44 10° NNW
S3M 4.4 06:40:04 10° N 06:45:17 62° N 06:45:17 62° N
Cosmos 2333 Rocket 4.1 06:48:14 10° N 06:51:37 20° NE 06:51:37 20° NE
Cosmos 2360 Rocket 3.4 06:52:50 10° N 06:56:30 36° NNE 06:56:30 36° NNE
Cosmos 2322 Rocket 3.8 07:21:42 10° NNW 07:24:34 29° NW 07:24:34 29° NW
COSMOS 2428 4.2 07:44:43 10° N 07:48:18 32° NNE 07:48:18 32° NNE
SL-16 R/B 4.5 07:47:50 10° NW 07:49:14 15° WNW 07:49:14 15° WNW
Cosmos 2219 Rocket 3.6 07:49:44 10° NNW 07:52:56 33° N 07:52:56 33° N
COSMOS 2455 4.1 08:10:42 34° NNW 08:10:42 34° NNW 08:15:05 10° N
USA 234 4.4 08:15:40 32° WNW 08:15:40 32° WNW 08:19:05 10° NW
Lacrosse 5 4.0 08:37:07 21° NE 08:37:07 21° NE 08:38:48 10° NE
ATLAS 5 CENTAUR R/B 3.5 08:30:15 10° NNW 08:35:46 39° NE 08:35:47 39° NE
Cosmos 2333 Rocket 4.0 08:31:27 10° NNW 08:33:35 23° NW 08:33:35 23° NW
SL-16 R/B 4.0 08:45:15 26° E 08:46:16 28° ENE 08:51:21 10° N
Resurs 1-4 Rocket 3.8 08:41:35 10° NNE 08:44:30 27° ENE 08:44:30 27° ENE
Cosmos 2297 Rocket 3.2 09:00:40 42° N 09:00:40 42° N 09:04:28 10° NNE
Cosmos 2227 Rocket 3.1 09:11:21 46° N 09:11:21 46° N 09:15:18 10° NNE
Cosmos 2237 Rocket 3.1 09:04:10 10° NNW 09:08:08 45° N 09:08:08 45° N
ADEOS Rocket 4.0 09:16:08 33° E 09:16:51 34° ENE 09:21:44 10° N
USA 229 DEB 4.2 09:11:55 10° NW 09:17:55 57° WNW 09:17:55 57° WNW
USA 229 4.2 09:12:01 10° NW 09:18:04 57° WNW 09:18:04 57° WNW
CZ-2D R/B 2.8 09:19:39 10° NNE 09:23:40 52° NNE 09:23:40 52° NNE
ADEOS II 3.3 09:21:39 10° NNE 09:25:41 35° ENE 09:25:41 35° ENE
Cosmos 2181 Rocket 4.1 09:22:32 10° N 09:28:07 70° N 09:28:07 70° N
SL-16 R/B 3.5 09:28:31 10° N 09:33:41 35° ENE 09:35:34 28° E
Cosmos 2263 Rocket 3.6 09:36:12 29° E 09:36:12 29° E 09:40:53 10° NE
NOSS 3-1 (A) 4.5 09:32:06 10° NW 09:38:44 50° W 09:38:44 50° W
ATLAS 2A CENTAUR R/B 3.9 09:51:02 56° S 09:51:32 57° SSE 10:17:17 10° E
Helios 1B rocket 4.1 09:49:05 10° N 09:51:15 30° N 09:51:15 30° N
Meteor 2-12 Rocket 4.4 10:00:55 68° WNW 10:00:55 68° WNW 10:06:46 10° N
BREEZE-M DEB (TANK) 4.4 10:03:48 34° NW 10:06:08 85° SW 10:26:14 10° SE
Nadezhda 3 Rocket 4.3 10:02:55 10° N 10:09:14 65° E 10:11:14 43° SE
Cosmos 2327 Rocket 4.3 10:10:32 75° SSW 10:11:08 88° W 10:17:19 10° N
CZ-3B R/B 4.4 10:12:02 40° S 10:13:01 40° S 10:20:04 10° ESE
Cosmos 2251 Rocket 4.4 10:17:02 38° NW 10:17:02 38° NW 10:21:24 10° N
CBERS-1 4.1 10:11:22 10° NNE 10:16:29 66° ESE 10:16:46 65° ESE
Cosmos 2344 3.4 10:14:50 55° SSW 10:16:45 83° ESE 10:24:14 10° NNE
IDEFIX/ARIANE 42P 2.7 10:11:38 10° NNE 10:16:47 64° ESE 10:17:13 61° SE
Cosmos 1378 Rocket 4.2 10:12:39 10° N 10:16:53 49° E 10:16:54 49° E
Lacrosse 5 3.7 10:16:19 19° NW 10:17:07 20° NW 10:20:51 10° N
Cosmos 2082 4.5 10:18:14 38° WNW 10:18:14 38° WNW 10:23:29 10° N
Cosmos 1908 Rocket 4.1 10:19:31 53° E 10:19:31 53° E 10:23:30 10° NNE
Cosmos 1356 Rocket 4.1 10:20:55 51° NE 10:20:55 51° NE 10:24:04 10° NNE
ATLAS 5 CENTAUR R/B 3.9 10:14:54 10° NW 10:17:13 22° WNW 10:17:13 22° WNW
Resurs 1-4 Rocket 3.6 10:21:50 10° NNW 10:25:34 24° WNW 10:25:34 24° WNW
Cosmos 1733 Rocket 4.4 10:27:31 30° NW 10:27:31 30° NW 10:30:22 10° N
SL-16 R/B 3.1 10:30:20 38° W 10:30:20 38° W 10:35:20 10° NNW
DELTA 2 DEB (DPAF) 4.3 10:30:51 65° ESE 10:31:16 70° ENE 10:35:41 10° N
SL-8 R/B 4.3 10:31:08 44° NW 10:31:32 45° NNW 10:36:09 10° NE
Cosmos 1190 Rocket 3.9 10:31:49 68° S 10:32:29 82° ESE 10:37:48 10° NNE
USA 215 3.6 10:26:52 10° NE 10:33:13 52° SE 10:35:19 39° S
Centaur AC-112 4.2 10:33:52 36° SSE 10:34:30 37° SSE 10:47:52 10° E
Cosmos 1295 Rocket 4.5 10:33:38 55° WSW 10:34:30 61° W 10:40:33 10° N
Cosmos 1140 Rocket 3.3 10:34:56 69° WSW 10:35:21 73° WNW 10:40:36 10° NNE
Cosmos 2154 Rocket 4.2 10:35:29 48° W 10:36:07 50° W 10:42:08 10° N
ASTRO E2 3.9 10:40:22 32° ESE 10:40:22 32° ESE 10:42:51 10° E
CZ-4C R/B 4.3 10:40:07 30° SE 10:41:42 47° ENE 10:45:44 10° N
Okean 2 3.4 10:41:16 10° N 10:45:11 73° NW 10:45:11 73° NW
Meteor 1-21 4.2 10:40:11 10° N 10:45:59 80° W 10:48:10 40° S
Cosmos 1954 Rocket 4.2 10:44:57 42° S 10:46:37 66° ESE 10:51:54 10° NNE
CZ-4B R/B 4.2 10:43:49 10° NNE 10:48:27 45° E 10:50:38 27° SSE
Meteor 1-28 Rocket 4.3 10:51:21 32° NW 10:51:21 32° NW 10:53:38 10° NNW
MSX 3.7 10:45:26 10° NNE 10:51:11 84° WNW 10:53:13 42° SSW
ARIANE 5 R/B 2.8 10:48:26 10° NNE 10:53:36 65° ESE 10:56:00 32° S
CZ-2D R/B 4.3 10:53:41 10° NNE 10:57:33 45° E 10:59:15 28° SSE
Cosmos 1782 Rocket 3.4 11:00:41 51° S 11:01:47 89° WNW 11:06:09 10° N
ADEOS Rocket 3.9 11:03:05 25° W 11:03:05 25° W 11:06:54 10° NW
Cosmos 1805 4.0 11:01:49 28° SSE 11:03:28 48° E 11:07:13 10° NNE
CZ-2D R/B 4.3 11:03:09 10° NW 11:04:20 11° WNW 11:04:59 10° WNW
ADEOS II 3.5 11:01:57 10° NNW 11:05:55 22° WNW 11:06:37 22° WNW
Cosmos 1959 Rocket 4.4 11:02:30 25° S 11:06:18 85° E 11:12:29 10° N
Cosmos 864 Rocket 4.5 11:02:17 23° S 11:06:18 83° E 11:12:34 10° N
ATLAS CENTAUR R/B 1.5 11:09:58 44° WNW 11:10:16 45° WNW 11:14:00 10° NNE
IUS-17 SRM-1 4.0 11:11:22 33° S 11:11:22 33° S 11:13:43 10° SE
SL-8 Rocket 3.9 11:09:37 30° SSW 11:12:48 67° W 11:18:56 10° N
KORONAS-FOTON 4.2 11:08:57 10° N 11:12:51 65° E 11:15:43 17° SSE
Cosmos 676 Rocket 4.0 11:12:58 35° SW 11:15:10 67° WNW 11:20:30 10° N
IRS-1C 4.2 11:10:06 10° N 11:15:21 60° WNW 11:17:43 32° SW
Cosmos 2366 rocket 4.0 11:11:29 23° S 11:15:36 80° W 11:21:59 10° N
SL-16 R/B 3.2 11:12:57 10° NW 11:17:20 26° W 11:17:20 26° W
Delta 142 4.4 11:16:04 31° WSW 11:18:25 46° S 11:23:15 10° ESE
Cosmos 2263 Rocket 3.1 11:17:54 26° W 11:19:51 33° WNW 11:24:56 10° N
Cosmos 1707 3.4 11:16:52 10° NNW 11:20:12 34° W 11:20:12 34° W
PAYLOAD A 4.2 11:21:31 10° NNE 11:26:58 79° ESE 11:31:25 15° S
Spot 1 4.0 11:25:21 24° S 11:27:44 56° WSW 11:31:46 10° NNW
ALOS 3.2 11:25:27 10° NNE 11:29:55 45° E 11:34:22 10° S
Cosmos 1733 3.1 11:27:50 26° S 11:29:55 85° W 11:33:46 10° N
GEOS 3 Rocket 4.2 11:25:49 10° SE 11:31:05 62° NE 11:36:21 10° NNW
Cosmos 1766 3.3 11:29:45 18° S 11:32:32 74° E 11:36:26 10° N
Cosmos 1741 Rocket 4.4 11:29:58 12° S 11:34:40 61° ESE 11:39:52 10° NNE
SL-08 R/B 3.3 11:31:15 10° S 11:36:10 76° WSW 11:41:08 10° NNW
CZ-4C R/B 3.1 11:28:52 10° NNW 11:36:38 79° WSW 11:45:17 10° SSE
Delta 128 4.2 11:34:57 27° SW 11:36:54 41° S 11:41:34 10° ESE
Meteor 2-20 4.4 11:33:09 10° NNW 11:39:15 68° W 11:45:20 10° S
Cosmos 2218 Rocket 4.4 11:37:15 19° SW 11:41:32 47° W 11:47:38 10° N
Cosmos 1300 Rocket 3.4 11:38:50 17° SSW 11:42:04 73° W 11:46:25 10° N
USA 290 4.4 11:40:30 10° N 11:43:24 29° ENE 11:46:17 10° SE
Meteor 2-20 Rocket 4.4 11:37:48 10° N 11:43:58 88° W 11:50:08 10° S
Meteor 1-15 Rocket 4.3 11:43:11 11° SSW 11:48:49 71° W 11:54:43 10° N
Cosmos 1484 Rocket 3.9 11:46:42 10° NNE 11:50:30 43° E 11:54:18 10° S
Cosmos 1340 3.2 11:48:18 10° NNW 11:51:47 37° W 11:54:37 14° SSW
Cosmos 1975 Rocket 3.3 11:47:38 10° NNW 11:51:50 46° W 11:55:58 10° SSW
Cosmos 1727 Rocket 4.0 11:46:33 10° N 11:52:49 85° W 11:59:06 10° S
Cosmos 1400 Rocket 3.5 11:51:48 20° SW 11:53:49 34° WNW 11:57:23 10° NNW
Cosmos 1626 2.1 11:51:59 10° NNW 11:55:37 57° W 11:59:13 10° S
IDEFIX/ARIANE 42P 4.5 11:53:25 10° NW 11:55:46 13° WNW 11:58:01 10° W
